Regional Weather Roundup
Issued by NWS Newport/Morehead, NC

Current Version | Previous Version | Graphics & Text | Print | Product List | Glossary Off
Versions: 1 2 3 4 5 6 7 8 9 10 11 12 13 14 15 16 17 18 19 20 21 22 23 24 25 26 27 28 29 30 31 32 33 34 35 36 37 38 39 40 41 42 43 44 45 46 47 48 49 50
000 ASUS42 KMHX 302325 RWRMHX WEATHER ROUNDUP FOR EASTERN NORTH CAROLINA NATIONAL WEATHER SERVICE NEWPORT/MOREHEAD CITY NC 700 PM EDT TUE JUN 30 2015 NOTE: "FAIR" INDICATES FEW OR NO CLOUDS BELOW 12,000 FEET WITH NO SIGNIFICANT WEATHER AND/OR OBSTRUCTIONS TO VISIBILITY NCZ015>017-031-032-045>047-102-103-010000- NORTH COAST CITY SKY/WX TMP DP RH WIND PRES REMARKS EDENTON N/A 86 71 59 S15G21 29.87S ELIZABETH CITY SUNNY 86 68 54 S13 29.87R KITTY HAWK CLEAR 87 66 48 S9 29.89R MANTEO SUNNY 85 70 60 SW22 29.90R $$ NCZ045>047-081-094-103-104-010000- CENTRAL COAST CITY SKY/WX TMP DP RH WIND PRES REMARKS FRISCO SUNNY 82 73 74 SW18G26 29.94R SWANQUARTER N/A 86 N/A N/A S20G26 29.88R $$ NCZ095-097-098-100-101-010000- SOUTHERN COAST CITY SKY/WX TMP DP RH WIND PRES REMARKS BEAUFORT SUNNY 82 75 79 SW22G29 29.94S CEDAR ISLAND N/A 84 N/A N/A S17 29.97S JACKSONVILLE SUNNY 84 68 58 S13G20 29.91F PINEY ISLAND CLEAR N/A N/A N/A S18G28 29.93R WILMINGTON SUNNY 85 67 54 S16G25 29.93F $$ NCZ011>013-027>030-043-044-078>080-089-090>093-098-010000- COASTAL PLAIN CITY SKY/WX TMP DP RH WIND PRES REMARKS AHOSKIE MOSUNNY N/A N/A N/A S3 29.86F CLINTON SUNNY 86 71 60 S7 29.89F ELIZABETHTOWN MOSUNNY 85 69 58 S12G17 29.90S GOLDSBORO SUNNY 89 68 51 S13G22 29.85F GREENVILLE SUNNY 88 70 55 S18G25 29.89S HAVELOCK MOSUNNY 84 68 58 SW16G22 29.94R KENANSVILLE SUNNY 85 66 53 S3 29.91R KINSTON SUNNY 88 68 51 S9G17 29.89S NEW BERN SUNNY 85 66 53 S14 29.92R RICHLANDS SUNNY 84 64 51 S15 29.91S ROCKY MOUNT MOSUNNY 89 68 49 S13G25 29.85S WASHINGTON SUNNY 86 67 53 S9G18 29.89S WHITEVILLE SUNNY 85 70 60 S9 29.91S $$ AMZ130-135-150-152-154-156-158-170-250-252-270-ANZ085-086-088-633-658-670-010000- MARINE OBSERVATIONS STATION/POSITION TIME TEMP WIND PRES WAVE SWELL AIR SEA DIR/SP/G HT/PER HT/PER (UTC) (F) (DEG/KT/KT) (MB) (FT/S) (FT/S) CHESAPEAKE LIGHT 2300 79 170/ 22/ 23 1011.3 64 E VA BEACH 2250 78 76 180/ 14/ 16 1011.8 4/ 8 3/ 8 DUCK 2300 85 72 190/ 16/ 21 1010.8 2 E DUCK 2211 78 N/A 2/ 7 OREGON INLET 2300 83 84 190/ 22/ 26 1012.6 13E OREGON INLT 2300 75 N/A 3/ 8 HATTERAS CG 2300 82 83 200/ 13/ 18 1013.5 DIAMOND BUOY 2250 82 82 200/ 19/ 23 1013.1 4/ 8 2/ 8 CAPE LOOKOUT 2300 81 210/ 13/ 17 1013.9 BEAUFORT LAB 2300 81 82 210/ 17/ 20 1013.2 30 SE NEW RVR IN NOT AVBL 27 SE WRIGHTSVLE 2300 81 220/ 17/ 19 N/A 5 SE WRIGHTSVLE 2208 81 80 210/ 17/ 23 1013.9 225 S CAPE HAT 2250 81 80 230/ 14/ 16 1017.3 5/ 6 3/ 7 41 SE CHARLESTON 2250 83 83 200/ 17/ 21 1014.7 4/ 4 2/ 7 $$

USA.gov is the U.S. government's official web portal to all federal, state and local government web resources and services.